| time (UTC) | temp F | wind direction | speed MPH | gust MPH | rain 1hr in | rain 24hr in | rain mn in | humidity % | barometer mb |
| 20260504184018 | 58 | 203 | 2.0 | 4.0 | 0.00 | 0.27 | 0.27 | 69 | 1001.5 |
| 20260504183017 | 58 | 203 | 3.0 | 5.0 | 0.00 | 0.27 | 0.27 | 68 | 1001.5 |
| 20260504182017 | 58 | 203 | 4.0 | 7.0 | 0.00 | 0.27 | 0.27 | 69 | 1001.5 |
| 20260504181017 | 57 | 180 | 3.0 | 4.0 | 0.00 | 0.27 | 0.27 | 70 | 1001.6 |
| 20260504180017 | 58 | 248 | 2.0 | 6.0 | 0.00 | 0.27 | 0.27 | 70 | 1001.6 |
| 20260504175018 | 58 | 203 | 3.0 | 6.0 | 0.00 | 0.27 | 0.27 | 67 | 1001.7 |
| 20260504174018 | 58 | 225 | 2.0 | 4.0 | 0.00 | 0.27 | 0.27 | 68 | 1001.7 |
| 20260504173017 | 58 | 248 | 2.0 | 7.0 | 0.00 | 0.27 | 0.27 | 71 | 1001.9 |
| 20260504172018 | 57 | 225 | 1.0 | 8.0 | 0.00 | 0.27 | 0.27 | 73 | 1002.0 |
| 20260504171018 | 56 | 180 | 2.0 | 4.0 | 0.00 | 0.27 | 0.27 | 75 | 1002.1 |
| 20260504151035 | 51 | 0.0 | 0.0 | 0.00 | 0.27 | 0.27 | 87 | 1002.8 | |
| 20260504141035 | 49 | 0.0 | 1.0 | 0.00 | 0.27 | 0.27 | 91 | 1002.6 | |
| 20260504081016 | 45 | 0.0 | 1.0 | 0.02 | 0.02 | 0.02 | 76 | 1002.5 | |
| 20260504050015 | 49 | 203 | 2.0 | 4.0 | 0.00 | 0.00 | 0.00 | 54 | 1003.7 |
| 20260504045015 | 49 | 225 | 1.0 | 2.0 | 0.00 | 0.00 | 0.00 | 53 | 1003.8 |
| 20260504044036 | 50 | 225 | 1.0 | 2.0 | 0.00 | 0.00 | 0.00 | 51 | 1004.0 |
| 20260504043016 | 50 | 225 | 2.0 | 4.0 | 0.00 | 0.00 | 0.00 | 52 | 1004.0 |
| 20260504042016 | 50 | 248 | 2.0 | 4.0 | 0.00 | 0.00 | 0.00 | 50 | 1003.9 |
| 20260504041016 | 50 | 248 | 1.0 | 2.0 | 0.00 | 0.00 | 0.00 | 49 | 1003.9 |
| 20260504040015 | 50 | 0.0 | 2.0 | 0.00 | 0.00 | 0.00 | 50 | 1004.0 | |
| 20260504035016 | 50 | 0.0 | 2.0 | 0.00 | 0.00 | 0.00 | 48 | 1004.0 | |
| 20260504034016 | 51 | 248 | 1.0 | 2.0 | 0.00 | 0.00 | 0.00 | 47 | 1003.9 |
| 20260504033016 | 51 | 248 | 2.0 | 4.0 | 0.00 | 0.00 | 0.00 | 47 | 1004.1 |
| 20260504032016 | 51 | 225 | 2.0 | 4.0 | 0.00 | 0.00 | 0.00 | 47 | 1004.1 |
| 20260504031016 | 51 | 225 | 2.0 | 3.0 | 0.00 | 0.00 | 0.00 | 45 | 1004.2 |
| 20260504030016 | 51 | 225 | 2.0 | 6.0 | 0.00 | 0.00 | 0.00 | 45 | 1004.2 |
| 20260504025016 | 51 | 248 | 1.0 | 3.0 | 0.00 | 0.00 | 0.00 | 44 | 1004.3 |
| 20260504024016 | 51 | 248 | 1.0 | 2.0 | 0.00 | 0.00 | 0.00 | 42 | 1004.3 |
| 20260504023036 | 51 | 270 | 1.0 | 3.0 | 0.00 | 0.00 | 0.00 | 43 | 1004.3 |
| 20260504022016 | 50 | 0.0 | 2.0 | 0.00 | 0.00 | 0.00 | 43 | 1004.3 | |
| 20260504021036 | 49 | 0.0 | 0.0 | 0.00 | 0.00 | 0.00 | 43 | 1004.3 | |
| 20260504020016 | 49 | 0.0 | 0.0 | 0.00 | 0.00 | 0.00 | 42 | 1004.3 | |
| 20260504015036 | 48 | 0.0 | 0.0 | 0.00 | 0.00 | 0.00 | 45 | 1004.3 | |
| 20260504014016 | 47 | 0.0 | 0.0 | 0.00 | 0.00 | 0.00 | 45 | 1004.3 | |
| 20260504013016 | 46 | 0.0 | 0.0 | 0.00 | 0.00 | 0.00 | 46 | 1004.2 | |
| 20260504012016 | 47 | 0.0 | 0.0 | 0.00 | 0.00 | 0.00 | 47 | 1004.2 | |
| 20260504011016 | 47 | 0.0 | 0.0 | 0.00 | 0.00 | 0.00 | 46 | 1004.1 | |
| 20260504010016 | 48 | 0.0 | 0.0 | 0.00 | 0.00 | 0.00 | 49 | 1004.2 | |
| 20260504005016 | 48 | 0.0 | 0.0 | 0.00 | 0.00 | 0.00 | 42 | 1004.1 | |
| 20260504004036 | 49 | 0.0 | 0.0 | 0.00 | 0.00 | 0.00 | 42 | 1004.1 | |
| 20260504003036 | 50 | 0.0 | 0.0 | 0.00 | 0.00 | 0.00 | 40 | 1004.1 | |
| 20260504002015 | 51 | 0.0 | 0.0 | 0.00 | 0.00 | 0.00 | 38 | 1003.9 | |
| 20260504001016 | 52 | 0.0 | 0.0 | 0.00 | 0.00 | 0.00 | 41 | 1004.0 | |
| 20260504000016 | 53 | 0.0 | 0.0 | 0.00 | 0.00 | 0.00 | 30 | 1004.0 | |
| 20260503235016 | 53 | 0.0 | 0.0 | 0.00 | 0.00 | 0.00 | 30 | 1004.0 | |
| 20260503234016 | 54 | 0.0 | 0.0 | 0.00 | 0.00 | 0.00 | 32 | 1003.9 | |
| 20260503233016 | 55 | 0.0 | 0.0 | 0.00 | 0.00 | 0.00 | 30 | 1004.0 | |
| 20260503232016 | 55 | 0.0 | 0.0 | 0.00 | 0.00 | 0.00 | 28 | 1003.9 | |
| 20260503231036 | 55 | 0.0 | 3.0 | 0.00 | 0.00 | 0.00 | 29 | 1004.0 | |
| 20260503230036 | 55 | 0.0 | 0.0 | 0.00 | 0.00 | 0.00 | 25 | 1003.9 | |
| 20260503225036 | 55 | 0.0 | 2.0 | 0.00 | 0.00 | 0.00 | 25 | 1004.1 | |
| 20260503224016 | 55 | 248 | 1.0 | 2.0 | 0.00 | 0.00 | 0.00 | 28 | 1004.1 |
| 20260503223015 | 55 | 0.0 | 2.0 | 0.00 | 0.00 | 0.00 | 27 | 1004.1 | |
| 20260503222016 | 56 | 0.0 | 2.0 | 0.00 | 0.00 | 0.00 | 27 | 1004.3 | |
| 20260503221016 | 55 | 0.0 | 2.0 | 0.00 | 0.00 | 0.00 | 25 | 1004.3 | |
| 20260503220016 | 56 | 248 | 2.0 | 4.0 | 0.00 | 0.00 | 0.00 | 25 | 1004.3 |
| 20260503215016 | 57 | 293 | 2.0 | 4.0 | 0.00 | 0.00 | 0.00 | 21 | 1004.2 |
| 20260503214036 | 57 | 135 | 1.0 | 4.0 | 0.00 | 0.00 | 0.00 | 22 | 1004.4 |
| 20260503213016 | 57 | 0.0 | 1.0 | 0.00 | 0.00 | 0.00 | 25 | 1004.5 | |
| 20260503212016 | 56 | 0.0 | 2.0 | 0.00 | 0.00 | 0.00 | 24 | 1004.5 | |
| 20260503211036 | 56 | 270 | 1.0 | 3.0 | 0.00 | 0.00 | 0.00 | 23 | 1004.6 |
| 20260503210016 | 56 | 293 | 2.0 | 4.0 | 0.00 | 0.00 | 0.00 | 25 | 1004.7 |
| 20260503205016 | 56 | 270 | 2.0 | 6.0 | 0.00 | 0.00 | 0.00 | 25 | 1004.8 |
| 20260503204016 | 55 | 225 | 1.0 | 3.0 | 0.00 | 0.00 | 0.00 | 27 | 1004.8 |
| 20260503203016 | 55 | 293 | 1.0 | 4.0 | 0.00 | 0.00 | 0.00 | 27 | 1005.0 |
| 20260503202016 | 55 | 225 | 1.0 | 6.0 | 0.00 | 0.00 | 0.00 | 30 | 1005.0 |
| 20260503201016 | 54 | 270 | 2.0 | 4.0 | 0.00 | 0.00 | 0.00 | 28 | 1005.1 |
| 20260503200016 | 55 | 293 | 2.0 | 4.0 | 0.00 | 0.00 | 0.00 | 27 | 1005.2 |
| 20260503195056 | 54 | 248 | 1.0 | 2.0 | 0.00 | 0.00 | 0.00 | 31 | 1005.5 |
| 20260503194016 | 54 | 90 | 1.0 | 3.0 | 0.00 | 0.00 | 0.00 | 33 | 1005.6 |
| 20260503193036 | 54 | 0.0 | 2.0 | 0.00 | 0.00 | 0.00 | 32 | 1005.7 | |
| 20260503192016 | 54 | 225 | 1.0 | 4.0 | 0.00 | 0.00 | 0.00 | 29 | 1005.8 |
| 20260503191016 | 54 | 293 | 2.0 | 8.0 | 0.00 | 0.00 | 0.00 | 27 | 1005.9 |
| 20260503190015 | 54 | 0.0 | 2.0 | 0.00 | 0.00 | 0.00 | 33 | 1006.0 | |
| 20260503185016 | 54 | 270 | 1.0 | 3.0 | 0.00 | 0.00 | 0.00 | 31 | 1006.1 |